contact:dominique.lefevre@mio.osupytheas.fr, maurice.libes@osupytheas.fr, didier.mallarino@osupytheas.fr
Project:EMSO http://www.emso-fr.org/EMSO-France
Depth: 2436.0 m
Title:EMSO Ligure Ouest : Data MII capteur MICROCAT
DateTime_Computer,Latitude,Longitude,Temperature,Conductivity,Pressure,DateTime_Instrument
DateTime_Computer,Latitude,Longitude,degC,S m-1,dbar,DateTime_Instrument
2021-07-06T00:00:30Z,42.805,6.029,13.2987,4.59994,2470.31,2021-7-06T02:01:45Z
2021-07-06T00:03:33Z,42.805,6.029,13.2986,4.59994,2470.334,2021-7-06T02:04:48Z
2021-07-06T00:06:36Z,42.805,6.029,13.2986,4.59994,2470.297,2021-7-06T02:07:51Z
2021-07-06T00:09:39Z,42.805,6.029,13.2984,4.59994,2470.334,2021-7-06T02:10:54Z
2021-07-06T00:12:42Z,42.805,6.029,13.2986,4.59994,2470.343,2021-7-06T02:13:58Z
2021-07-06T00:15:45Z,42.805,6.029,13.2988,4.59995,2470.357,2021-7-06T02:17:01Z
2021-07-06T00:18:49Z,42.805,6.029,13.2983,4.59996,2470.343,2021-7-06T02:20:04Z
2021-07-06T00:21:52Z,42.805,6.029,13.2987,4.59996,2470.366,2021-7-06T02:23:07Z
2021-07-06T00:24:55Z,42.805,6.029,13.2983,4.59995,2470.38,2021-7-06T02:26:10Z
2021-07-06T00:27:58Z,42.805,6.029,13.2991,4.59994,2470.32,2021-7-06T02:29:13Z
2021-07-06T00:31:01Z,42.805,6.029,13.2982,4.59994,2470.32,2021-7-06T02:32:16Z
2021-07-06T00:34:04Z,42.805,6.029,13.2988,4.59995,2470.32,2021-7-06T02:35:19Z
2021-07-06T00:37:07Z,42.805,6.029,13.2988,4.59997,2470.297,2021-7-06T02:38:22Z
2021-07-06T00:40:10Z,42.805,6.029,13.2984,4.59995,2470.31,2021-7-06T02:41:26Z
2021-07-06T00:43:14Z,42.805,6.029,13.2987,4.59995,2470.343,2021-7-06T02:44:29Z
2021-07-06T00:46:17Z,42.805,6.029,13.2987,4.59995,2470.31,2021-7-06T02:47:32Z
2021-07-06T00:49:20Z,42.805,6.029,13.2983,4.59996,2470.334,2021-7-06T02:50:35Z
2021-07-06T00:52:23Z,42.805,6.029,13.2984,4.59996,2470.297,2021-7-06T02:53:38Z
2021-07-06T00:55:26Z,42.805,6.029,13.2983,4.59996,2470.32,2021-7-06T02:56:41Z
2021-07-06T00:58:29Z,42.805,6.029,13.2988,4.59996,2470.343,2021-7-06T02:59:44Z
2021-07-06T01:01:32Z,42.805,6.029,13.2990,4.59995,2470.366,2021-7-06T03:02:47Z
2021-07-06T01:04:35Z,42.805,6.029,13.2986,4.59996,2470.357,2021-7-06T03:05:51Z
2021-07-06T01:07:38Z,42.805,6.029,13.2983,4.59996,2470.343,2021-7-06T03:08:54Z
2021-07-06T01:10:42Z,42.805,6.029,13.2987,4.59995,2470.357,2021-7-06T03:11:57Z
2021-07-06T01:13:45Z,42.805,6.029,13.2985,4.59996,2470.357,2021-7-06T03:15:00Z
2021-07-06T01:16:48Z,42.805,6.029,13.2989,4.59995,2470.343,2021-7-06T03:18:03Z
2021-07-06T01:19:51Z,42.805,6.029,13.2984,4.59998,2470.343,2021-7-06T03:21:06Z
2021-07-06T01:22:54Z,42.805,6.029,13.2988,4.59996,2470.343,2021-7-06T03:24:09Z
2021-07-06T01:25:57Z,42.805,6.029,13.2986,4.59996,2470.366,2021-7-06T03:27:12Z
2021-07-06T01:29:00Z,42.805,6.029,13.2985,4.59996,2470.38,2021-7-06T03:30:16Z
2021-07-06T01:32:03Z,42.805,6.029,13.2987,4.59994,2470.334,2021-7-06T03:33:19Z
2021-07-06T01:35:07Z,42.805,6.029,13.2985,4.59994,2470.38,2021-7-06T03:36:22Z
2021-07-06T01:38:10Z,42.805,6.029,13.2989,4.59994,2470.343,2021-7-06T03:39:25Z
2021-07-06T01:41:13Z,42.805,6.029,13.2986,4.59994,2470.39,2021-7-06T03:42:28Z
2021-07-06T01:44:16Z,42.805,6.029,13.2983,4.59995,2470.343,2021-7-06T03:45:31Z
2021-07-06T01:47:19Z,42.805,6.029,13.2983,4.59996,2470.366,2021-7-06T03:48:34Z
2021-07-06T01:50:22Z,42.805,6.029,13.2983,4.59999,2470.38,2021-7-06T03:51:37Z
2021-07-06T01:53:25Z,42.805,6.029,13.2983,4.59996,2470.343,2021-7-06T03:54:40Z
2021-07-06T01:56:28Z,42.805,6.029,13.2983,4.59996,2470.357,2021-7-06T03:57:44Z
2021-07-06T01:59:31Z,42.805,6.029,13.2987,4.59995,2470.343,2021-7-06T04:00:47Z
2021-07-06T02:02:35Z,42.805,6.029,13.2987,4.59999,2470.343,2021-7-06T04:03:50Z
2021-07-06T02:05:38Z,42.805,6.029,13.2985,4.59996,2470.343,2021-7-06T04:06:53Z
2021-07-06T02:08:41Z,42.805,6.029,13.2983,4.59996,2470.343,2021-7-06T04:09:56Z
2021-07-06T02:11:44Z,42.805,6.029,13.2986,4.59996,2470.343,2021-7-06T04:12:59Z
2021-07-06T02:14:47Z,42.805,6.029,13.2986,4.59996,2470.357,2021-7-06T04:16:02Z
2021-07-06T02:17:50Z,42.805,6.029,13.2984,4.59997,2470.33,2021-7-06T04:19:05Z
2021-07-06T02:20:53Z,42.805,6.029,13.2985,4.59996,2470.366,2021-7-06T04:22:08Z
2021-07-06T02:23:56Z,42.805,6.029,13.2984,4.59997,2470.404,2021-7-06T04:25:12Z
2021-07-06T02:27:00Z,42.805,6.029,13.2986,4.59997,2470.366,2021-7-06T04:28:15Z
2021-07-06T02:30:03Z,42.805,6.029,13.2983,4.59999,2470.343,2021-7-06T04:31:18Z
2021-07-06T02:33:06Z,42.805,6.029,13.2985,4.59998,2470.39,2021-7-06T04:34:21Z
2021-07-06T02:36:09Z,42.805,6.029,13.2984,4.59996,2470.343,2021-7-06T04:37:24Z
2021-07-06T02:39:12Z,42.805,6.029,13.2983,4.59998,2470.39,2021-7-06T04:40:27Z
2021-07-06T02:42:15Z,42.805,6.029,13.2984,4.59999,2470.357,2021-7-06T04:43:30Z
2021-07-06T02:45:18Z,42.805,6.029,13.2983,4.59999,2470.357,2021-7-06T04:46:33Z
2021-07-06T02:48:21Z,42.805,6.029,13.2983,4.60000,2470.404,2021-7-06T04:49:37Z
2021-07-06T02:51:24Z,42.805,6.029,13.2990,4.59996,2470.366,2021-7-06T04:52:40Z
2021-07-06T02:54:28Z,42.805,6.029,13.2983,4.59995,2470.366,2021-7-06T04:55:43Z
2021-07-06T02:57:31Z,42.805,6.029,13.2985,4.59995,2470.366,2021-7-06T04:58:46Z
2021-07-06T03:00:34Z,42.805,6.029,13.2984,4.59997,2470.39,2021-7-06T05:01:49Z
2021-07-06T03:03:37Z,42.805,6.029,13.2986,4.59994,2470.39,2021-7-06T05:04:52Z
2021-07-06T03:06:40Z,42.805,6.029,13.2983,4.59995,2470.38,2021-7-06T05:07:55Z
2021-07-06T03:09:43Z,42.805,6.029,13.2984,4.59996,2470.404,2021-7-06T05:10:58Z
2021-07-06T03:12:46Z,42.805,6.029,13.2985,4.59994,2470.413,2021-7-06T05:14:02Z
2021-07-06T03:15:49Z,42.805,6.029,13.2985,4.59995,2470.413,2021-7-06T05:17:05Z
2021-07-06T03:18:53Z,42.805,6.029,13.2987,4.59995,2470.39,2021-7-06T05:20:08Z
2021-07-06T03:21:56Z,42.805,6.029,13.2985,4.59994,2470.39,2021-7-06T05:23:11Z
2021-07-06T03:24:59Z,42.805,6.029,13.2985,4.59996,2470.38,2021-7-06T05:26:14Z
2021-07-06T03:28:02Z,42.805,6.029,13.2988,4.59995,2470.404,2021-7-06T05:29:17Z
2021-07-06T03:31:05Z,42.805,6.029,13.2983,4.59996,2470.404,2021-7-06T05:32:20Z
2021-07-06T03:34:08Z,42.805,6.029,13.2985,4.59998,2470.366,2021-7-06T05:35:23Z
2021-07-06T03:37:11Z,42.805,6.029,13.2986,4.59996,2470.39,2021-7-06T05:38:26Z
2021-07-06T03:40:14Z,42.805,6.029,13.2985,4.59997,2470.413,2021-7-06T05:41:30Z
2021-07-06T03:43:17Z,42.805,6.029,13.2984,4.59996,2470.399,2021-7-06T05:44:33Z
2021-07-06T03:46:21Z,42.805,6.029,13.2989,4.60001,2470.366,2021-7-06T05:47:36Z
2021-07-06T03:49:24Z,42.805,6.029,13.2991,4.60000,2470.413,2021-7-06T05:50:39Z
2021-07-06T03:52:27Z,42.805,6.029,13.2986,4.59999,2470.39,2021-7-06T05:53:42Z
2021-07-06T03:55:30Z,42.805,6.029,13.2987,4.59998,2470.427,2021-7-06T05:56:45Z
2021-07-06T03:58:33Z,42.805,6.029,13.2986,4.59997,2470.427,2021-7-06T05:59:48Z
2021-07-06T04:01:36Z,42.805,6.029,13.2986,4.59996,2470.404,2021-7-06T06:02:51Z
2021-07-06T04:04:39Z,42.805,6.029,13.2986,4.59999,2470.413,2021-7-06T06:05:55Z
2021-07-06T04:07:42Z,42.805,6.029,13.2982,4.59998,2470.404,2021-7-06T06:08:58Z
2021-07-06T04:10:46Z,42.805,6.029,13.2982,4.59996,2470.474,2021-7-06T06:12:01Z
2021-07-06T04:13:49Z,42.805,6.029,13.2990,4.60003,2470.38,2021-7-06T06:15:04Z
2021-07-06T04:16:52Z,42.805,6.029,13.2982,4.59995,2470.46,2021-7-06T06:18:07Z
2021-07-06T04:19:55Z,42.805,6.029,13.2987,4.59998,2470.437,2021-7-06T06:21:10Z
2021-07-06T04:22:58Z,42.805,6.029,13.2987,4.59997,2470.45,2021-7-06T06:24:13Z
2021-07-06T04:26:01Z,42.805,6.029,13.2984,4.59998,2470.413,2021-7-06T06:27:16Z
2021-07-06T04:29:04Z,42.805,6.029,13.2984,4.59996,2470.437,2021-7-06T06:30:19Z
2021-07-06T04:32:07Z,42.805,6.029,13.2984,4.59996,2470.413,2021-7-06T06:33:23Z
2021-07-06T04:35:10Z,42.805,6.029,13.2985,4.59996,2470.427,2021-7-06T06:36:26Z
2021-07-06T04:38:14Z,42.805,6.029,13.2985,4.59996,2470.427,2021-7-06T06:39:29Z
2021-07-06T04:41:17Z,42.805,6.029,13.2984,4.59998,2470.413,2021-7-06T06:42:32Z
2021-07-06T04:44:20Z,42.805,6.029,13.2984,4.60001,2470.45,2021-7-06T06:45:35Z
2021-07-06T04:47:23Z,42.805,6.029,13.2985,4.59999,2470.437,2021-7-06T06:48:38Z
2021-07-06T04:50:26Z,42.805,6.029,13.2982,4.60001,2470.437,2021-7-06T06:51:41Z
2021-07-06T04:53:29Z,42.805,6.029,13.2988,4.60005,2470.437,2021-7-06T06:54:44Z
2021-07-06T04:56:32Z,42.805,6.029,13.2985,4.60001,2470.39,2021-7-06T06:57:48Z
2021-07-06T04:59:35Z,42.805,6.029,13.2986,4.60000,2470.413,2021-7-06T07:00:51Z
2021-07-06T05:02:39Z,42.805,6.029,13.2986,4.59997,2470.413,2021-7-06T07:03:54Z
2021-07-06T05:05:42Z,42.805,6.029,13.2987,4.60002,2470.404,2021-7-06T07:06:57Z
2021-07-06T05:08:45Z,42.805,6.029,13.2987,4.60004,2470.39,2021-7-06T07:10:00Z
2021-07-06T05:11:48Z,42.805,6.029,13.2988,4.60006,2470.39,2021-7-06T07:13:03Z
2021-07-06T05:14:51Z,42.805,6.029,13.2984,4.60001,2470.404,2021-7-06T07:16:06Z
2021-07-06T05:17:54Z,42.805,6.029,13.2990,4.60001,2470.427,2021-7-06T07:19:09Z
2021-07-06T05:20:57Z,42.805,6.029,13.2985,4.59997,2470.45,2021-7-06T07:22:12Z
2021-07-06T05:24:00Z,42.805,6.029,13.2983,4.59996,2470.413,2021-7-06T07:25:16Z
2021-07-06T05:27:03Z,42.805,6.029,13.2982,4.59997,2470.474,2021-7-06T07:28:19Z
2021-07-06T05:30:07Z,42.805,6.029,13.2984,4.59996,2470.437,2021-7-06T07:31:22Z
2021-07-06T05:33:10Z,42.805,6.029,13.2984,4.59996,2470.39,2021-7-06T07:34:25Z
2021-07-06T05:36:13Z,42.805,6.029,13.2986,4.59996,2470.39,2021-7-06T07:37:28Z
2021-07-06T05:39:16Z,42.805,6.029,13.2988,4.59998,2470.39,2021-7-06T07:40:31Z
2021-07-06T05:42:19Z,42.805,6.029,13.2990,4.59999,2470.413,2021-7-06T07:43:34Z
2021-07-06T05:45:22Z,42.805,6.029,13.2983,4.59998,2470.427,2021-7-06T07:46:37Z
2021-07-06T05:48:25Z,42.805,6.029,13.2986,4.59999,2470.39,2021-7-06T07:49:41Z
2021-07-06T05:51:28Z,42.805,6.029,13.2985,4.59998,2470.427,2021-7-06T07:52:44Z
2021-07-06T05:54:32Z,42.805,6.029,13.2989,4.59999,2470.404,2021-7-06T07:55:47Z
2021-07-06T05:57:35Z,42.805,6.029,13.2987,4.59996,2470.404,2021-7-06T07:58:50Z
2021-07-06T06:00:38Z,42.805,6.029,13.2986,4.60001,2470.427,2021-7-06T08:01:53Z
2021-07-06T06:03:41Z,42.805,6.029,13.2983,4.59996,2470.413,2021-7-06T08:04:56Z
2021-07-06T06:06:44Z,42.805,6.029,13.2985,4.59997,2470.38,2021-7-06T08:07:59Z
2021-07-06T06:09:47Z,42.805,6.029,13.2987,4.60002,2470.427,2021-7-06T08:11:02Z
2021-07-06T06:12:50Z,42.805,6.029,13.2983,4.59996,2470.427,2021-7-06T08:14:05Z
2021-07-06T06:15:53Z,42.805,6.029,13.2986,4.59997,2470.413,2021-7-06T08:17:09Z
2021-07-06T06:18:56Z,42.805,6.029,13.2986,4.59999,2470.39,2021-7-06T08:20:12Z
2021-07-06T06:22:00Z,42.805,6.029,13.2983,4.59998,2470.404,2021-7-06T08:23:15Z
2021-07-06T06:25:03Z,42.805,6.029,13.2990,4.59999,2470.404,2021-7-06T08:26:18Z
2021-07-06T06:28:06Z,42.805,6.029,13.2986,4.59997,2470.404,2021-7-06T08:29:21Z
2021-07-06T06:31:09Z,42.805,6.029,13.2987,4.59996,2470.39,2021-7-06T08:32:24Z
2021-07-06T06:34:12Z,42.805,6.029,13.2984,4.59998,2470.366,2021-7-06T08:35:27Z
2021-07-06T06:37:15Z,42.805,6.029,13.2984,4.59998,2470.343,2021-7-06T08:38:30Z
2021-07-06T06:40:18Z,42.805,6.029,13.2983,4.59996,2470.39,2021-7-06T08:41:34Z
2021-07-06T06:43:21Z,42.805,6.029,13.2987,4.60002,2470.39,2021-7-06T08:44:37Z
2021-07-06T06:46:25Z,42.805,6.029,13.2990,4.59999,2470.39,2021-7-06T08:47:40Z
2021-07-06T06:49:28Z,42.805,6.029,13.2989,4.59998,2470.39,2021-7-06T08:50:43Z
2021-07-06T06:52:31Z,42.805,6.029,13.2989,4.60005,2470.39,2021-7-06T08:53:46Z
2021-07-06T06:55:34Z,42.805,6.029,13.2991,4.60001,2470.404,2021-7-06T08:56:49Z
2021-07-06T06:58:37Z,42.805,6.029,13.2984,4.59999,2470.366,2021-7-06T08:59:52Z
2021-07-06T07:01:40Z,42.805,6.029,13.2985,4.60000,2470.39,2021-7-06T09:02:55Z
2021-07-06T07:04:43Z,42.805,6.029,13.2982,4.59999,2470.404,2021-7-06T09:05:58Z
2021-07-06T07:07:46Z,42.805,6.029,13.2988,4.59997,2470.366,2021-7-06T09:09:02Z
2021-07-06T07:10:49Z,42.805,6.029,13.2984,4.59999,2470.38,2021-7-06T09:12:05Z
2021-07-06T07:13:53Z,42.805,6.029,13.2988,4.59999,2470.38,2021-7-06T09:15:08Z
2021-07-06T07:16:56Z,42.805,6.029,13.2986,4.60001,2470.38,2021-7-06T09:18:11Z
2021-07-06T07:19:59Z,42.805,6.029,13.2987,4.60002,2470.366,2021-7-06T09:21:14Z
2021-07-06T07:23:02Z,42.805,6.029,13.2984,4.59999,2470.343,2021-7-06T09:24:17Z
2021-07-06T07:26:05Z,42.805,6.029,13.2987,4.59998,2470.38,2021-7-06T09:27:20Z
2021-07-06T07:29:08Z,42.805,6.029,13.2989,4.59997,2470.366,2021-7-06T09:30:23Z
2021-07-06T07:32:11Z,42.805,6.029,13.2982,4.59996,2470.343,2021-7-06T09:33:27Z
2021-07-06T07:35:14Z,42.805,6.029,13.2986,4.59996,2470.32,2021-7-06T09:36:30Z
2021-07-06T07:38:18Z,42.805,6.029,13.2987,4.60001,2470.343,2021-7-06T09:39:33Z
2021-07-06T07:41:21Z,42.805,6.029,13.2988,4.59998,2470.38,2021-7-06T09:42:36Z
2021-07-06T07:44:24Z,42.805,6.029,13.2986,4.59998,2470.366,2021-7-06T09:45:39Z
2021-07-06T07:47:27Z,42.805,6.029,13.2987,4.59999,2470.366,2021-7-06T09:48:42Z
2021-07-06T07:50:30Z,42.805,6.029,13.2989,4.60000,2470.366,2021-7-06T09:51:45Z
2021-07-06T07:53:33Z,42.805,6.029,13.2984,4.59999,2470.334,2021-7-06T09:54:48Z
2021-07-06T07:56:36Z,42.805,6.029,13.2988,4.59997,2470.357,2021-7-06T09:57:51Z
2021-07-06T07:59:39Z,42.805,6.029,13.2983,4.59999,2470.32,2021-7-06T10:00:55Z
2021-07-06T08:02:42Z,42.805,6.029,13.2986,4.59996,2470.343,2021-7-06T10:03:58Z
2021-07-06T08:05:46Z,42.805,6.029,13.2987,4.59999,2470.357,2021-7-06T10:07:01Z
2021-07-06T08:08:49Z,42.805,6.029,13.2990,4.59999,2470.343,2021-7-06T10:10:04Z
2021-07-06T08:11:52Z,42.805,6.029,13.2991,4.59998,2470.32,2021-7-06T10:13:07Z
2021-07-06T08:14:55Z,42.805,6.029,13.2990,4.59999,2470.334,2021-7-06T10:16:10Z
2021-07-06T08:17:58Z,42.805,6.029,13.2987,4.59998,2470.32,2021-7-06T10:19:13Z
2021-07-06T08:21:01Z,42.805,6.029,13.2986,4.59997,2470.334,2021-7-06T10:22:16Z
2021-07-06T08:24:04Z,42.805,6.029,13.2986,4.60001,2470.343,2021-7-06T10:25:20Z
2021-07-06T08:27:07Z,42.805,6.029,13.2986,4.59999,2470.357,2021-7-06T10:28:23Z
2021-07-06T08:30:11Z,42.805,6.029,13.2986,4.59999,2470.343,2021-7-06T10:31:26Z
2021-07-06T08:33:14Z,42.805,6.029,13.2987,4.59998,2470.357,2021-7-06T10:34:29Z
2021-07-06T08:36:17Z,42.805,6.029,13.2986,4.59998,2470.32,2021-7-06T10:37:32Z
2021-07-06T08:39:20Z,42.805,6.029,13.2987,4.59999,2470.343,2021-7-06T10:40:35Z
2021-07-06T08:42:23Z,42.805,6.029,13.2991,4.59999,2470.343,2021-7-06T10:43:38Z
2021-07-06T08:45:26Z,42.805,6.029,13.2986,4.59997,2470.32,2021-7-06T10:46:41Z
2021-07-06T08:48:29Z,42.805,6.029,13.2987,4.59998,2470.343,2021-7-06T10:49:45Z
2021-07-06T08:51:32Z,42.805,6.029,13.2986,4.59998,2470.297,2021-7-06T10:52:48Z
2021-07-06T08:54:36Z,42.805,6.029,13.2989,4.59997,2470.32,2021-7-06T10:55:51Z
2021-07-06T08:57:39Z,42.805,6.029,13.2986,4.59996,2470.343,2021-7-06T10:58:54Z
2021-07-06T09:00:42Z,42.805,6.029,13.2986,4.59999,2470.357,2021-7-06T11:01:57Z
2021-07-06T09:03:45Z,42.805,6.029,13.2989,4.59998,2470.306,2021-7-06T11:05:00Z
2021-07-06T09:06:48Z,42.805,6.029,13.2988,4.59997,2470.32,2021-7-06T11:08:03Z
2021-07-06T09:09:51Z,42.805,6.029,13.2988,4.59998,2470.334,2021-7-06T11:11:06Z
2021-07-06T09:12:54Z,42.805,6.029,13.2990,4.59999,2470.32,2021-7-06T11:14:10Z
2021-07-06T09:15:57Z,42.805,6.029,13.2987,4.59997,2470.32,2021-7-06T11:17:13Z
2021-07-06T09:19:01Z,42.805,6.029,13.2986,4.59997,2470.31,2021-7-06T11:20:16Z
2021-07-06T09:22:04Z,42.805,6.029,13.2989,4.59996,2470.334,2021-7-06T11:23:19Z
2021-07-06T09:25:07Z,42.805,6.029,13.2987,4.59999,2470.297,2021-7-06T11:26:22Z
2021-07-06T09:28:10Z,42.805,6.029,13.2991,4.59999,2470.32,2021-7-06T11:29:25Z
2021-07-06T09:31:13Z,42.805,6.029,13.2986,4.59997,2470.273,2021-7-06T11:32:28Z
2021-07-06T09:34:16Z,42.805,6.029,13.2985,4.59998,2470.297,2021-7-06T11:35:31Z
2021-07-06T09:37:19Z,42.805,6.029,13.2986,4.59999,2470.334,2021-7-06T11:38:35Z
2021-07-06T09:40:22Z,42.805,6.029,13.2986,4.59996,2470.297,2021-7-06T11:41:38Z
2021-07-06T09:43:26Z,42.805,6.029,13.2983,4.59997,2470.297,2021-7-06T11:44:41Z
2021-07-06T09:46:29Z,42.805,6.029,13.2985,4.59996,2470.31,2021-7-06T11:47:44Z
2021-07-06T09:49:32Z,42.805,6.029,13.2989,4.59996,2470.32,2021-7-06T11:50:47Z
2021-07-06T09:52:35Z,42.805,6.029,13.2985,4.59997,2470.273,2021-7-06T11:53:50Z
2021-07-06T09:55:38Z,42.805,6.029,13.2982,4.59998,2470.297,2021-7-06T11:56:53Z
2021-07-06T09:58:41Z,42.805,6.029,13.2984,4.59999,2470.273,2021-7-06T11:59:56Z
2021-07-06T10:01:44Z,42.805,6.029,13.2982,4.59998,2470.273,2021-7-06T12:03:00Z
2021-07-06T10:04:47Z,42.805,6.029,13.2988,4.60000,2470.297,2021-7-06T12:06:03Z
2021-07-06T10:07:51Z,42.805,6.029,13.2984,4.59997,2470.287,2021-7-06T12:09:06Z
2021-07-06T10:10:54Z,42.805,6.029,13.2985,4.60000,2470.297,2021-7-06T12:12:09Z
2021-07-06T10:13:57Z,42.805,6.029,13.2990,4.59996,2470.334,2021-7-06T12:15:12Z
2021-07-06T10:17:00Z,42.805,6.029,13.2987,4.59998,2470.273,2021-7-06T12:18:15Z
2021-07-06T10:20:03Z,42.805,6.029,13.2988,4.59996,2470.287,2021-7-06T12:21:18Z
2021-07-06T10:23:06Z,42.805,6.029,13.2987,4.59996,2470.273,2021-7-06T12:24:21Z
2021-07-06T10:26:09Z,42.805,6.029,13.2984,4.59996,2470.25,2021-7-06T12:27:25Z
2021-07-06T10:29:12Z,42.805,6.029,13.2985,4.59997,2470.297,2021-7-06T12:30:28Z
2021-07-06T10:32:16Z,42.805,6.029,13.2987,4.59996,2470.297,2021-7-06T12:33:31Z
2021-07-06T10:35:19Z,42.805,6.029,13.2988,4.59997,2470.297,2021-7-06T12:36:34Z
2021-07-06T10:38:22Z,42.805,6.029,13.2988,4.59997,2470.31,2021-7-06T12:39:37Z
2021-07-06T10:41:25Z,42.805,6.029,13.2990,4.59997,2470.25,2021-7-06T12:42:40Z
2021-07-06T10:44:28Z,42.805,6.029,13.2983,4.59996,2470.287,2021-7-06T12:45:43Z
2021-07-06T10:47:31Z,42.805,6.029,13.2987,4.59996,2470.334,2021-7-06T12:48:46Z
2021-07-06T10:50:34Z,42.805,6.029,13.2985,4.59996,2470.297,2021-7-06T12:51:50Z
2021-07-06T10:53:37Z,42.805,6.029,13.2986,4.59994,2470.334,2021-7-06T12:54:53Z
2021-07-06T10:56:41Z,42.805,6.029,13.2988,4.59998,2470.25,2021-7-06T12:57:56Z
2021-07-06T10:59:44Z,42.805,6.029,13.2984,4.59995,2470.297,2021-7-06T13:00:59Z
2021-07-06T11:02:47Z,42.805,6.029,13.2989,4.59995,2470.297,2021-7-06T13:04:02Z
2021-07-06T11:05:50Z,42.805,6.029,13.2984,4.59996,2470.26,2021-7-06T13:07:05Z
2021-07-06T11:08:53Z,42.805,6.029,13.2986,4.59998,2470.273,2021-7-06T13:10:08Z
2021-07-06T11:11:56Z,42.805,6.029,13.2986,4.59996,2470.273,2021-7-06T13:13:11Z
2021-07-06T11:14:59Z,42.805,6.029,13.2986,4.59997,2470.31,2021-7-06T13:16:15Z
2021-07-06T11:18:02Z,42.805,6.029,13.2987,4.59996,2470.297,2021-7-06T13:19:18Z
2021-07-06T11:21:05Z,42.805,6.029,13.2989,4.59996,2470.25,2021-7-06T13:22:21Z
2021-07-06T11:24:09Z,42.805,6.029,13.2986,4.59996,2470.287,2021-7-06T13:25:24Z
2021-07-06T11:27:12Z,42.805,6.029,13.2986,4.59996,2470.273,2021-7-06T13:28:27Z
2021-07-06T11:30:15Z,42.805,6.029,13.2987,4.59997,2470.297,2021-7-06T13:31:30Z
2021-07-06T11:33:18Z,42.805,6.029,13.2989,4.59997,2470.273,2021-7-06T13:34:33Z
2021-07-06T11:36:21Z,42.805,6.029,13.2987,4.59998,2470.227,2021-7-06T13:37:36Z
2021-07-06T11:39:24Z,42.805,6.029,13.2984,4.59997,2470.273,2021-7-06T13:40:39Z
2021-07-06T11:42:27Z,42.805,6.029,13.2986,4.59998,2470.31,2021-7-06T13:43:43Z
2021-07-06T11:45:30Z,42.805,6.029,13.2986,4.59996,2470.273,2021-7-06T13:46:46Z
2021-07-06T11:48:34Z,42.805,6.029,13.2989,4.59997,2470.31,2021-7-06T13:49:49Z
2021-07-06T11:51:37Z,42.805,6.029,13.2985,4.59997,2470.273,2021-7-06T13:52:52Z
2021-07-06T11:54:40Z,42.805,6.029,13.2987,4.59996,2470.334,2021-7-06T13:55:55Z
2021-07-06T11:57:43Z,42.805,6.029,13.2983,4.59998,2470.31,2021-7-06T13:58:58Z
2021-07-06T12:00:46Z,42.805,6.029,13.2985,4.59999,2470.273,2021-7-06T14:02:01Z
2021-07-06T12:03:49Z,42.805,6.029,13.2987,4.59998,2470.32,2021-7-06T14:05:04Z
2021-07-06T12:06:52Z,42.805,6.029,13.2985,4.59998,2470.32,2021-7-06T14:08:08Z
2021-07-06T12:09:55Z,42.805,6.029,13.2989,4.59999,2470.31,2021-7-06T14:11:11Z
2021-07-06T12:12:59Z,42.805,6.029,13.2990,4.59996,2470.297,2021-7-06T14:14:14Z
2021-07-06T12:16:02Z,42.805,6.029,13.2991,4.59997,2470.287,2021-7-06T14:17:17Z
2021-07-06T12:19:05Z,42.805,6.029,13.2984,4.59998,2470.297,2021-7-06T14:20:20Z
2021-07-06T12:22:08Z,42.805,6.029,13.2988,4.60001,2470.273,2021-7-06T14:23:23Z
2021-07-06T12:25:11Z,42.805,6.029,13.2985,4.59998,2470.25,2021-7-06T14:26:26Z
2021-07-06T12:28:14Z,42.805,6.029,13.2986,4.59999,2470.264,2021-7-06T14:29:29Z
2021-07-06T12:31:17Z,42.805,6.029,13.2986,4.59999,2470.273,2021-7-06T14:32:33Z
2021-07-06T12:34:20Z,42.805,6.029,13.2987,4.59998,2470.31,2021-7-06T14:35:36Z
2021-07-06T12:37:24Z,42.805,6.029,13.2990,4.59998,2470.31,2021-7-06T14:38:39Z
2021-07-06T12:40:27Z,42.805,6.029,13.2988,4.59998,2470.287,2021-7-06T14:41:42Z
2021-07-06T12:43:30Z,42.805,6.029,13.2986,4.60001,2470.31,2021-7-06T14:44:45Z
2021-07-06T12:46:33Z,42.805,6.029,13.2986,4.60001,2470.273,2021-7-06T14:47:48Z
2021-07-06T12:49:36Z,42.805,6.029,13.2987,4.60000,2470.297,2021-7-06T14:50:51Z
2021-07-06T12:52:39Z,42.805,6.029,13.2987,4.59998,2470.287,2021-7-06T14:53:54Z
2021-07-06T12:55:42Z,42.805,6.029,13.2987,4.59997,2470.32,2021-7-06T14:56:58Z
2021-07-06T12:58:45Z,42.805,6.029,13.2984,4.59999,2470.297,2021-7-06T15:00:01Z
2021-07-06T13:01:49Z,42.805,6.029,13.2989,4.59999,2470.31,2021-7-06T15:03:04Z
2021-07-06T13:04:52Z,42.805,6.029,13.2984,4.59999,2470.273,2021-7-06T15:06:07Z
2021-07-06T13:07:55Z,42.805,6.029,13.2988,4.59998,2470.26,2021-7-06T15:09:10Z
2021-07-06T13:10:58Z,42.805,6.029,13.2983,4.59999,2470.32,2021-7-06T15:12:13Z
2021-07-06T13:14:01Z,42.805,6.029,13.2987,4.59999,2470.297,2021-7-06T15:15:16Z
2021-07-06T13:17:04Z,42.805,6.029,13.2988,4.59997,2470.357,2021-7-06T15:18:19Z
2021-07-06T13:20:07Z,42.805,6.029,13.2988,4.59998,2470.297,2021-7-06T15:21:23Z
2021-07-06T13:23:10Z,42.805,6.029,13.2986,4.59997,2470.32,2021-7-06T15:24:26Z
2021-07-06T13:26:14Z,42.805,6.029,13.2991,4.59999,2470.334,2021-7-06T15:27:29Z
2021-07-06T13:29:17Z,42.805,6.029,13.2986,4.59997,2470.32,2021-7-06T15:30:32Z
2021-07-06T13:32:20Z,42.805,6.029,13.2989,4.59996,2470.32,2021-7-06T15:33:35Z
2021-07-06T13:35:23Z,42.805,6.029,13.2989,4.59997,2470.32,2021-7-06T15:36:38Z
2021-07-06T13:38:26Z,42.805,6.029,13.2986,4.59997,2470.32,2021-7-06T15:39:41Z
2021-07-06T13:41:29Z,42.805,6.029,13.2987,4.59999,2470.297,2021-7-06T15:42:44Z
2021-07-06T13:44:32Z,42.805,6.029,13.2990,4.59998,2470.357,2021-7-06T15:45:48Z
2021-07-06T13:47:35Z,42.805,6.029,13.2986,4.59997,2470.334,2021-7-06T15:48:51Z
2021-07-06T13:50:39Z,42.805,6.029,13.2988,4.60000,2470.32,2021-7-06T15:51:54Z
2021-07-06T13:53:42Z,42.805,6.029,13.2983,4.59996,2470.297,2021-7-06T15:54:57Z
2021-07-06T13:56:45Z,42.805,6.029,13.2986,4.59997,2470.32,2021-7-06T15:58:00Z
2021-07-06T13:59:48Z,42.805,6.029,13.2985,4.60000,2470.32,2021-7-06T16:01:03Z
2021-07-06T14:02:51Z,42.805,6.029,13.2988,4.60001,2470.334,2021-7-06T16:04:06Z
2021-07-06T14:05:54Z,42.805,6.029,13.2985,4.59998,2470.334,2021-7-06T16:07:09Z
2021-07-06T14:08:57Z,42.805,6.029,13.2988,4.59997,2470.343,2021-7-06T16:10:12Z
2021-07-06T14:12:00Z,42.805,6.029,13.2987,4.59997,2470.343,2021-7-06T16:13:16Z
2021-07-06T14:15:03Z,42.805,6.029,13.2988,4.59998,2470.343,2021-7-06T16:16:19Z
2021-07-06T14:18:07Z,42.805,6.029,13.2991,4.59997,2470.343,2021-7-06T16:19:22Z
2021-07-06T14:21:10Z,42.805,6.029,13.2988,4.59997,2470.343,2021-7-06T16:22:25Z
2021-07-06T14:24:13Z,42.805,6.029,13.2986,4.59999,2470.366,2021-7-06T16:25:28Z
2021-07-06T14:27:16Z,42.805,6.029,13.2986,4.59996,2470.32,2021-7-06T16:28:31Z
2021-07-06T14:30:19Z,42.805,6.029,13.2987,4.59996,2470.39,2021-7-06T16:31:34Z
2021-07-06T14:33:22Z,42.805,6.029,13.2987,4.59996,2470.38,2021-7-06T16:34:37Z
2021-07-06T14:36:25Z,42.805,6.029,13.2986,4.59996,2470.39,2021-7-06T16:37:41Z
2021-07-06T14:39:28Z,42.805,6.029,13.2985,4.59996,2470.366,2021-7-06T16:40:44Z
2021-07-06T14:42:32Z,42.805,6.029,13.2986,4.59999,2470.357,2021-7-06T16:43:47Z
2021-07-06T14:45:35Z,42.805,6.029,13.2988,4.59997,2470.366,2021-7-06T16:46:50Z
2021-07-06T14:48:38Z,42.805,6.029,13.2985,4.59996,2470.39,2021-7-06T16:49:53Z
2021-07-06T14:51:41Z,42.805,6.029,13.2986,4.59996,2470.366,2021-7-06T16:52:56Z
2021-07-06T14:54:44Z,42.805,6.029,13.2986,4.59996,2470.39,2021-7-06T16:55:59Z
2021-07-06T14:57:47Z,42.805,6.029,13.2987,4.59999,2470.413,2021-7-06T16:59:02Z
2021-07-06T15:00:50Z,42.805,6.029,13.2986,4.59999,2470.39,2021-7-06T17:02:06Z
2021-07-06T15:03:53Z,42.805,6.029,13.2983,4.59998,2470.427,2021-7-06T17:05:09Z
2021-07-06T15:06:57Z,42.805,6.029,13.2984,4.59996,2470.353,2021-7-06T17:08:12Z
2021-07-06T15:10:00Z,42.805,6.029,13.2988,4.59997,2470.427,2021-7-06T17:11:15Z
2021-07-06T15:13:03Z,42.805,6.029,13.2985,4.59996,2470.427,2021-7-06T17:14:18Z